Theta_e
329 327 328 326 328 327 326 321 316 312 312 318 319 325 327 328 330 334 327 333 336 335 333 333 333 334 336 337 337 336 336 336 336 335 335 333 332 332
332 330 328 328 327 327 328 325 321 317 313 318 320 323 328 329 331 332 328 333 335 335 333 332 332 333 334 335 335 335 335 334 334 334 334 334 334 333
333 331 329 329 328 326 328 326 324 321 317 319 322 324 327 328 329 332 330 329 329 333 334 333 331 332 332 333 333 333 334 333 333 333 333 333 334 334
331 331 330 333 327 325 326 325 324 324 321 319 320 322 324 325 325 326 328 334 330 332 332 332 330 330 329 329 328 328 329 330 330 330 331 332 333 333
333 331 330 328 326 325 326 325 326 327 324 321 320 322 323 324 323 325 326 324 327 333 330 329 328 327 326 324 324 323 322 322 323 324 325 326 328 331
334 334 333 332 328 329 330 327 326 325 323 322 321 320 320 322 322 319 319 320 320 327 330 328 327 327 325 324 324 324 321 318 317 317 318 319 321 324
334 336 337 336 335 332 332 328 326 324 323 320 318 316 316 317 316 319 320 321 322 322 320 319 318 317 319 321 324 326 323 321 318 317 316 315 315 317
333 333 337 338 336 334 334 332 331 326 322 319 319 315 316 317 319 319 319 318 316 322 319 316 317 316 318 317 323 323 322 321 319 318 318 316 315 315
334 332 334 337 336 336 332 330 329 328 326 321 318 318 317 318 318 316 317 316 315 320 314 310 313 312 316 319 322 322 321 320 319 317 317 316 315 314
335 333 335 335 332 332 330 329 328 327 327 327 323 323 321 322 320 320 319 316 314 314 314 309 312 312 316 316 322 323 320 317 317 316 315 314 311 310
334 335 336 332 328 326 328 327 326 325 327 324 324 324 324 324 324 320 319 310 309 309 311 311 312 311 311 311 311 317 316 314 314 315 315 314 311 310
330 334 328 332 322 322 331 328 326 326 323 324 324 321 322 322 323 319 316 310 309 307 312 311 309 307 304 303 304 307 310 313 312 312 312 312 309 313
331 331 333 320 317 316 320 328 325 321 323 317 315 314 314 313 314 314 315 314 309 309 314 312 307 304 302 303 307 311 312 313 313 314 311 309 308 309
330 332 332 317 313 312 315 319 317 318 316 313 310 310 309 310 310 311 310 313 319 313 314 309 306 305 304 303 304 308 310 310 310 311 311 310 309 309
334 325 314 309 309 313 313 315 315 314 311 308 307 307 309 309 308 306 306 304 303 303 305 301 306 306 307 305 305 306 308 308 309 307 310 310 310 309
318 319 317 317 313 315 315 315 314 312 309 307 307 309 309 305 303 304 301 300 297 297 301 303 306 309 306 307 306 307 308 303 307 309 308 307 307 308
319 317 315 311 311 311 311 312 309 309 309 309 309 309 305 303 303 301 299 297 295 295 298 300 304 308 308 307 305 306 305 305 307 307 306 304 305 306
317 315 311 311 311 310 309 309 309 312 309 309 309 306 302 302 300 299 298 295 294 296 295 296 302 302 302 303 311 304 304 304 306 305 305 302 300 303
315 314 315 313 312 312 311 310 311 312 310 307 303 303 302 299 298 297 295 295 295 294 294 297 300 298 296 297 302 309 304 305 303 302 303 300 299 299
310 310 309 309 309 309 308 305 305 302 299 298 300 298 297 297 296 294 294 294 293 294 294 300 298 297 297 297 300 304 305 302 301 300 299 300 300 303
306 304 305 305 305 304 303 302 302 300 298 297 295 296 297 295 293 294 295 297 297 294 294 294 298 306 301 299 296 296 301 304 304 301 300 296 295 296
304 303 303 303 303 303 301 300 299 298 296 296 297 296 295 293 294 295 294 293 294 294 294 294 299 298 296 294 293 295 298 300 303 304 304 301 295 292
304 304 303 303 302 301 299 297 296 295 296 295 294 293 294 294 295 294 294 295 294 293 293 293 297 297 294 294 295 294 295 296 298 298 298 302 300 299
Wind_Speed
5 4 3 2 2 2 2 3 5 2 2 3 1 2 3 5 7 6 7 10 12 13 13 12 13 13 12 12 12 13 13 13 12 12 11 12 12 11
4 5 3 2 3 1 2 3 3 4 2 4 3 2 1 1 6 7 7 10 12 13 12 13 14 12 13 13 14 14 15 15 14 13 13 13 13 14
5 6 7 4 3 2 2 2 3 3 3 3 3 2 2 3 4 3 5 6 5 10 12 14 14 13 13 13 14 17 18 17 16 15 15 15 15 15
7 6 7 3 6 5 3 4 3 4 4 4 2 2 4 4 5 5 4 3 4 6 9 11 11 10 11 13 14 13 14 15 15 15 14 15 16 15
8 8 7 7 6 3 5 5 3 2 3 3 3 1 2 2 3 2 1 3 3 6 8 9 6 6 8 8 8 9 10 12 13 14 16 15 15 17
9 9 9 9 7 7 5 6 4 4 2 2 2 2 2 2 1 2 4 2 3 2 4 6 5 5 7 7 8 9 10 12 13 13 15 14 15 17
8 9 10 11 13 10 6 6 5 4 3 3 3 1 2 2 3 2 3 3 3 4 3 3 2 4 7 7 8 10 11 12 12 13 12 11 13 14
10 7 8 11 12 13 13 11 11 7 5 4 2 3 4 4 3 3 2 2 3 2 3 4 2 5 5 4 11 12 13 12 11 12 14 12 11 12
7 6 6 7 9 7 8 5 7 9 6 6 6 6 4 5 3 3 4 4 5 6 2 5 2 4 5 6 11 12 14 15 13 10 10 13 14 15
9 8 7 7 7 7 5 6 6 6 5 5 5 5 6 5 5 4 4 4 3 4 4 4 2 4 4 5 12 13 12 13 12 12 15 15 15 16
6 7 9 7 6 6 7 7 5 4 7 10 12 12 11 10 9 1 6 2 4 4 4 4 4 4 3 4 6 13 15 13 15 14 16 16 17 18
5 5 8 7 11 11 8 6 7 8 4 5 3 3 4 6 9 6 4 4 4 3 4 4 2 2 5 3 3 5 5 12 14 16 17 18 16 9
6 4 4 10 9 12 12 7 6 3 4 3 3 4 3 4 5 4 5 5 4 5 5 3 2 2 3 4 3 4 5 6 6 8 12 13 14 12
4 3 3 8 10 10 7 5 8 6 3 2 2 3 3 3 3 4 4 4 5 7 6 2 4 4 3 3 4 4 5 5 5 6 5 8 14 18
3 3 5 6 9 6 9 8 8 3 3 2 3 2 3 4 3 3 3 3 5 5 5 4 5 4 4 4 4 5 6 4 5 4 8 9 10 11
8 6 4 4 3 4 3 3 4 4 4 4 3 3 2 2 2 1 2 2 2 5 7 5 4 4 3 4 4 9 6 3 5 8 10 11 12 12
7 4 3 2 2 3 3 4 3 4 4 3 2 2 2 1 2 1 2 2 1 3 5 5 5 4 5 6 6 6 5 6 7 9 12 15 13 12
3 3 3 4 4 4 3 3 3 5 4 3 3 3 2 2 2 3 1 1 3 4 4 4 3 5 4 5 10 5 4 5 9 11 12 12 16 12
2 3 3 4 4 4 4 4 4 4 4 3 3 3 2 1 1 2 2 2 3 3 4 2 1 1 3 4 5 2 5 9 9 12 10 11 14 15
2 2 3 4 3 4 4 4 4 4 3 3 2 1 1 1 1 2 2 2 3 3 4 2 2 2 2 3 4 6 10 7 9 12 13 12 13 24
3 2 3 4 5 5 5 4 4 4 3 2 2 1 0 1 1 2 3 5 4 2 4 4 3 4 3 3 4 5 6 10 11 11 13 12 13 10
5 5 4 4 5 5 5 4 3 3 2 1 2 3 2 2 1 2 3 3 4 2 4 4 3 1 2 1 3 6 7 8 11 14 14 17 11 10
6 6 6 5 4 4 4 4 3 2 2 4 3 2 2 2 3 2 3 4 3 4 2 4 2 0 1 2 4 4 6 11 9 12 10 22 22 21
Wind_Direction
213 205 185 193 187 173 137 143 149 180 274 284 281 294 184 173 208 209 220 228 224 227 232 232 237 234 236 244 248 249 250 252 255 255 255 266 274 277
200 202 218 198 204 197 157 151 147 153 203 210 262 276 254 216 217 211 228 237 243 241 242 240 247 247 239 236 243 247 247 247 247 249 249 251 258 265
210 206 222 204 206 194 147 145 152 141 181 287 232 245 278 268 289 260 240 248 252 249 249 250 252 258 262 255 245 244 244 240 239 241 242 246 249 254
208 208 223 205 213 209 202 209 194 185 152 233 271 271 222 243 242 260 257 233 231 244 243 255 266 272 263 267 268 260 251 253 249 243 242 244 246 248
197 198 203 200 212 206 209 213 210 187 181 178 256 292 272 301 331 335 314 323 303 287 288 288 294 271 267 270 272 275 275 262 250 249 247 247 243 249
202 207 207 201 203 212 215 220 195 188 199 211 235 271 263 308 294 266 306 339 298 294 292 269 302 301 296 297 279 268 259 261 263 255 246 247 252 254
199 209 216 206 202 204 201 220 204 202 197 204 227 249 267 284 249 244 241 245 269 243 274 299 311 311 299 296 281 274 271 279 269 263 260 255 251 255
210 207 223 202 210 215 212 205 195 190 202 191 203 211 246 218 209 229 258 296 301 221 179 272 217 273 270 255 270 284 288 281 270 266 266 264 246 244
204 195 215 222 205 211 214 241 207 220 206 179 215 210 236 218 192 222 226 216 231 263 134 268 227 268 275 285 280 280 288 292 298 276 251 248 247 245
189 193 205 209 198 184 195 221 223 220 208 202 216 254 238 244 205 223 254 248 268 264 159 234 228 249 266 259 267 267 271 270 265 263 268 269 258 247
212 197 203 203 203 193 186 211 238 246 241 228 225 235 233 238 244 180 270 216 276 264 213 192 251 245 227 246 248 256 264 268 263 271 273 266 264 268
197 208 193 192 183 186 195 212 245 241 220 288 292 282 280 285 279 200 213 226 242 298 258 168 249 220 295 239 239 254 252 260 267 272 274 277 273 278
192 197 200 185 182 194 215 206 223 153 218 212 265 280 296 292 282 249 211 194 210 231 248 152 253 266 217 283 269 259 253 267 267 280 277 275 276 266
194 184 189 187 213 212 200 215 167 157 186 238 264 272 275 292 286 294 304 256 231 228 275 176 234 209 221 261 265 286 272 257 255 266 282 282 270 262
133 111 108 117 150 177 213 185 159 181 184 208 250 279 269 269 289 298 284 276 278 270 253 225 206 247 214 237 263 267 293 276 286 270 288 285 290 288
112 104 100 89 115 125 146 185 183 186 190 209 214 244 268 278 286 257 285 313 333 301 310 301 282 220 264 250 261 288 283 271 289 291 292 294 292 286
122 105 115 137 159 172 194 179 187 197 205 201 212 233 245 270 277 293 279 310 271 286 295 308 318 263 247 249 283 279 279 288 292 300 305 297 291 289
107 139 170 193 191 196 207 225 206 229 228 186 218 201 208 230 269 302 260 266 278 292 291 279 320 345 339 301 223 271 284 290 308 306 298 297 299 299
144 167 175 187 216 215 209 193 208 203 178 170 145 191 195 247 269 288 315 278 306 293 282 261 302 36 305 297 286 245 308 311 313 310 307 304 297 300
106 166 195 207 194 166 139 133 122 125 119 131 148 187 163 224 292 317 312 291 292 291 305 275 250 218 222 262 306 292 313 310 317 313 313 308 292 291
159 135 141 128 118 116 121 122 134 152 156 153 161 151 210 141 318 286 315 307 284 279 292 284 250 225 258 314 328 299 300 304 311 316 322 316 320 315
135 130 133 129 131 140 143 151 156 158 157 187 167 141 114 128 303 334 336 314 308 268 260 270 264 39 20 304 283 282 304 319 314 319 328 342 336 325
149 152 153 152 156 157 147 153 155 155 161 142 133 145 124 37 3 323 311 302 302 312 293 306 331 8 267 250 290 290 307 326 328 336 338 353 355 345